Fort Stockton Pecos County Airport
KFST : rendu visible

Aérodrome :











RETROUVEZ-NOUS SUR...

 
LOGIN :

S'inscrire | Disclaimer

   EN    FR    IT 

 









Légende :    VFR   VFR Marginal   IFR   IFR Intensif   IFR Très Intensif
Visi : 
Plafond : 
>= 8 km
>= 3000ft
5 à 8 km
1000 à 3000 ft
1500m à 5 km
500 à 1000 ft
800 à 1500m
200 à 500 ft
< 800m
< 200 ft
Symboles :   Orages  Brouillard  Fortes neiges  Fortes précipitations  Vent > 20 kt






- Altitude de l'aérodrome : 3011 ft


KFST - Fort Stockton Pecos County

DERNIER METAR :
  • 271253Z AUTO 22015KT 10SM CLR 21/08 A2991 RMK AO2 SLP082 T02060083

METARs EXPIRÉS :
  • 271153Z AUTO 21011KT 10SM CLR 18/08 A2990 RMK AO2 SLP080 T01830078 10211 20178 56002
  • 271053Z AUTO 21013KT 10SM CLR 19/08 A2990 RMK AO2 SLP080 T01940083

TAF KFST
Valide du 27 à 12h jusqu'au 28 à 12h UTC


271120Z 2712/2812 19011KT P6SM SKC
FM271800 02011KT P6SM SKC
FIR KZAB / Amérique du Nord



MET'MAP, la Météo Aéronautique d'un coup d'oeil ! - Copyright ORBIFLY Décembre 2007 - Disclaimer

ORBIFLY MET'MAP TEAM :

Programmation & Développement : Alexandra Zaïnal
Sur une idée originale de : Baudouin d'Aumeries
Assistance à la programmation : Marc-Olivier Méhu
Soutien technique & logistique : Manuel Goepfert

Contact : metmap@orbifly.com




SOURCES & CREDITS :

   NOAA       Earth
Advisory